EXPRESS-AM5

Last updated on Thu Aug 13 2026 00:02:59 GMT+0000 (Coordinated Universal Time)

1 39487U 13077A 26224.52850127 -.00000298 00000+0 00000+0 0 9993 2 39487 0.0407 263.9111 0000567 314.5020 72.8415 1.00271867 46920
UTC large
Height (km)
Speed (km/s)
/
Latitude / Longitude
Inclination (degrees)
Orbital Period (minutes)
Azimuth
Elevation
Range (km)
Doppler Factor

Next 0 passes for location: London (51.5072 / 0.1276)

No passes found over London.
EXPRESS-AM5